MHTG

Toncontín International Airport

Airport
ICAO code
MHTG
IATA Code
TGU
Summary
ICAO Region
CARSAM
ICAO Territory
Location

Tegucigalpa, Central District

Serving
Tegucigalpa
Elevation
3297 ft
Coordinates
14° 3' 41" N , 87° 13' 2" W
KCC
Airport RE
Hot and High Operations
Airport WX
Tropical Revolving Storm
Metar
MHTG 221900Z 22005KT 2000 FU SCT034TCU 32/16 Q1016 A3000 NOSIG

Toncontín International Airport is a civil and military airport that serves Tegucigalpa, Honduras. It is 6 km away from the center of Tegucigalpa.

Climatology

Tropical Savanna climate (Köppen climate classification Aw)

Runways

Designator Length Width Surface Rops
2/20 1863 45 ASP Yes/Yes

Airport map

Aerial View

SKYbrary Partners:

Safety knowledge contributed by: